sat.trackr.live / text

‹ back to catalog

STARLINK-2675

NORAD 48470 · 2021-040AU

PAYLOAD ACTIVE UNKNOWN

§ Identity

Operator
Country
US
Launch date
2021-05-09
Launch site
AFETR
Launch vehicle
Mass (kg)
RCS (m²)

Purposes: comms

External: N2YO · Heavens-Above · Gunter

§ Orbital elements

Epoch: 2026-09-19T22:33:04.197888Z

Period
94.01 min
Inclination
53.1608°
Eccentricity
0.0001046
Mean motion
15.31706736 rev/d
Perigee alt
470.0 km
Apogee alt
471.4 km
Semi-major
6,848.9 km
B*
-3.4836e-6
RAAN
7.0390°
Arg perigee
98.8624°
Mean anomaly
261.2496°
Rev number
29,626

§ Raw data

STARLINK-26751 48470U 21040AU  26262.93963192 -.00000473  00000+0 -34836-5 0  99942 48470  53.1608   7.0390 0001046  98.8624 261.2496 15.31706736296269

JSON: /api/v1/satellites/48470 · /tle

For live sub-satellite position, see the globe view (requires WebGL).

§ Visibility from observer

Set your observer location to see the next 7 days of passes ≥ 10°. The values pass through the URL so the page stays shareable.

No JS? Fill the form by hand. The geolocation button needs JavaScript.